This is the latest recevied weather packets stored in our database for station/object AF5AA. If no packets are shown the sender has not sent any weather packets the latest 10 day(s).
| Time | Temp. | Humidity | Pressure | Rain* | Wind** | Luminosity | Snow |
|---|---|---|---|---|---|---|---|
| 1777937068 | 25.56° C | 59% | 1008.2 hPa | 0 mm | - | 32 W/m² | - |
| 1777936765 | 25.56° C | 56% | 1008.3 hPa | 0 mm | - | 38 W/m² | - |
| 1777936462 | 25.56° C | 56% | 1008.4 hPa | 0 mm | - | 32 W/m² | - |
| 1777936158 | 25.56° C | 57% | 1008.4 hPa | 0 mm | - | 37 W/m² | - |
| 1777935855 | 25.56° C | 56% | 1008.2 hPa | 0 mm | - | 46 W/m² | - |
| 1777935554 | 25.56° C | 55% | 1008.4 hPa | 0 mm | - | 47 W/m² | - |
| 1777935250 | 25.56° C | 55% | 1008.4 hPa | 0 mm | - | 50 W/m² | - |
| 1777934948 | 25.56° C | 56% | 1008.6 hPa | 0 mm | - | 56 W/m² | - |
| 1777934644 | 25.56° C | 56% | 1008.6 hPa | 0 mm | - | 58 W/m² | - |
| 1777934342 | 25.56° C | 56% | 1008.4 hPa | 0 mm | - | 50 W/m² | - |
| 1777934036 | 26.11° C | 54% | 1008.8 hPa | 0 mm | - | 60 W/m² | - |
| 1777933733 | 26.11° C | 53% | 1008.6 hPa | 0 mm | - | 51 W/m² | - |
| 1777933430 | 26.11° C | 53% | 1009 hPa | 0 mm | - | 54 W/m² | - |
| 1777933129 | 26.67° C | 52% | 1008.8 hPa | 0 mm | - | 51 W/m² | - |
| 1777932825 | 26.67° C | 52% | 1009.1 hPa | 0 mm | - | 45 W/m² | - |
| 1777932522 | 26.67° C | 51% | 1009 hPa | 0 mm | - | 36 W/m² | - |
| 1777932219 | 26.67° C | 50% | 1009 hPa | 0 mm | - | 44 W/m² | - |
| 1777931916 | 26.67° C | 53% | 1008.9 hPa | 0 mm | - | 39 W/m² | - |
| 1777931612 | 26.67° C | 50% | 1009.1 hPa | 0 mm | - | 43 W/m² | - |
| 1777931308 | 26.67° C | 50% | 1009.3 hPa | 0 mm | - | 50 W/m² | - |
| 1777931006 | 26.67° C | 49% | 1009.2 hPa | 0 mm | - | 111 W/m² | - |
| 1777930702 | 26.67° C | 50% | 1009.4 hPa | 0 mm | - | 71 W/m² | - |
| 1777930398 | 26.67° C | 49% | 1009.5 hPa | 0 mm | - | 88 W/m² | - |
| 1777930096 | 26.67° C | 48% | 1009.6 hPa | 0 mm | - | 244 W/m² | - |
| 1777929791 | 26.67° C | 48% | 1009.8 hPa | 0 mm | - | 99 W/m² | - |
* Rain latest hour (hover to see other rain measurements)
** Current wind speed in m/s (hover to see current wind gust speed)